FW3145 Weather Reports


Display with metric or nautical units.
time (UTC)temp
F
wind
direction
speed
MPH
gust
MPH
rain 1hr
in
rain 24hr
in
rain mn
in
humidity
%
barometer
mb
20260505231554 56 80 0.0 0.0 0.00 0.00 0.00 80 1013.6
20260505230052 57 80 0.0 0.0 0.00 0.00 0.00 80 1013.7
20260505224549 58 80 0.0 0.0 0.00 0.00 0.00 79 1014.0
20260505223050 58 292 0.0 0.0 0.00 0.00 0.00 80 1014.0
20260505221543 58 292 0.0 0.0 0.00 0.00 0.00 79 1014.3
20260505220044 58 292 0.0 0.0 0.00 0.00 0.00 79 1014.4
20260505214541 58 292 0.0 0.0 0.00 0.00 0.00 79 1014.5
20260505213046 58 292 0.0 0.0 0.00 0.00 0.00 79 1014.6
20260505211543 57 292 0.0 0.0 0.00 0.00 0.00 79 1014.7
20260505210040 57 292 0.0 0.0 0.00 0.00 0.00 79 1014.7
20260505204539 57 292 0.0 0.0 0.00 0.00 0.00 78 1014.6
20260505203047 57 292 0.0 0.0 0.00 0.00 0.00 78 1014.7
20260505201540 58 291 0.0 0.0 0.00 0.00 0.00 77 1014.8
20260505200039 59 291 0.0 0.0 0.00 0.00 0.00 77 1014.8
20260505194538 59 291 0.0 0.0 0.00 0.00 0.00 76 1014.8
20260505193054 59 283 0.0 0.0 0.00 0.00 0.00 76 1014.7
20260505191541 59 283 0.0 0.0 0.00 0.00 0.00 75 1014.6
20260505190039 59 17 0.0 0.0 0.00 0.00 0.00 75 1014.6
20260505184535 59 13 0.0 0.0 0.00 0.00 0.00 76 1014.3
20260505183035 58 5 0.0 0.0 0.00 0.00 0.00 76 1014.4
20260505181534 59 46 0.0 0.0 0.00 0.00 0.00 74 1014.2
20260505180038 60 86 0.0 0.0 0.00 0.00 0.00 73 1014.0
20260505174532 61 86 0.0 0.0 0.00 0.00 0.00 71 1014.2
20260505173031 62 113 0.0 0.0 0.00 0.00 0.00 69 1014.3
20260505171532 63 148 0.0 0.0 0.00 0.00 0.00 66 1014.4
20260505170034 63 148 0.0 0.0 0.00 0.00 0.00 62 1014.3
20260505164537 64 142 0.0 0.0 0.00 0.00 0.00 62 1014.2
20260505163036 64 106 0.0 0.0 0.00 0.00 0.00 60 1014.3
20260505161529 64 103 0.0 0.0 0.00 0.00 0.00 60 1014.4
20260505153029 65 137 0.0 0.0 0.00 0.00 0.00 59 1014.8
20260505151528 64 237 0.0 0.0 0.00 0.00 0.00 61 1014.8
20260505124516 67 248 0.0 0.0 0.00 0.00 0.00 53 1015.3
20260505123017 67 148 0.0 0.0 0.00 0.00 0.00 57 1015.5
20260505121614 67 209 0.0 0.0 0.00 0.00 0.00 55 1015.5
20260505120019 66 208 0.0 0.0 0.00 0.00 0.00 56 1015.5
20260505114507 65 166 0.0 0.0 0.00 0.00 0.00 67 1015.7
20260505113006 64 209 0.0 0.0 0.00 0.00 0.00 72 1015.9
20260505111602 62 213 0.0 0.0 0.00 0.00 0.00 72 1016.1
20260505110106 62 212 0.0 0.0 0.00 0.00 0.00 74 1016.1
20260505101553 60 242 0.0 0.0 0.00 0.00 0.00 76 1016.3
20260505100050 60 243 0.0 0.0 0.00 0.00 0.00 77 1016.3
20260505094549 59 243 0.0 0.0 0.00 0.00 0.00 76 1016.4
20260505093144 58 245 0.0 0.0 0.00 0.00 0.00 76 1016.4
20260505091551 58 230 0.0 0.0 0.00 0.00 0.00 77 1016.3
20260505090045 57 240 0.0 0.0 0.00 0.00 0.00 80 1016.1
20260505084559 58 246 0.0 0.0 0.00 0.00 0.00 80 1016.1
20260505083058 58 269 0.0 0.0 0.00 0.00 0.00 79 1015.9
20260505081552 57 47 0.0 0.0 0.00 0.00 0.00 81 1015.9
20260505080044 56 48 0.0 0.0 0.00 0.00 0.00 81 1016.0
20260505074532 55 200 0.0 0.0 0.00 0.00 0.00 82 1016.5
20260505073045 55 200 0.0 0.0 0.00 0.00 0.00 81 1016.6
20260505071543 55 182 0.0 0.0 0.00 0.00 0.00 80 1016.5
20260505070040 55 130 0.0 0.0 0.00 0.00 0.00 81 1016.3
20260505064534 55 130 0.0 0.0 0.00 0.00 0.00 81 1016.3
20260505063036 55 117 0.0 0.0 0.00 0.00 0.00 81 1016.1
20260505061529 54 117 0.0 0.0 0.00 0.00 0.00 82 1016.1
20260505060048 53 144 0.0 0.0 0.00 0.00 0.00 82 1015.9
20260505054524 53 240 0.0 0.0 0.00 0.00 0.00 81 1016.1
20260505053023 54 227 0.0 0.0 0.00 0.00 0.00 81 1015.8
20260505051520 53 65 0.0 0.0 0.00 0.00 0.00 82 1015.6
20260505041512 51 323 0.0 0.0 0.00 0.00 0.00 82 1015.5
20260505040016 51 323 0.0 0.0 0.00 0.00 0.00 82 1015.4
20260505034509 50 323 0.0 0.0 0.00 0.00 0.00 82 1015.2
20260505033009 50 323 0.0 0.0 0.00 0.00 0.00 82 1015.2
20260505031508 51 325 0.0 0.0 0.00 0.00 0.00 82 1015.1
20260505030007 50 325 0.0 0.0 0.00 0.00 0.00 82 1015.2
20260505024506 50 325 0.0 0.0 0.00 0.00 0.00 82 1015.4
20260505023005 50 323 0.0 0.0 0.00 0.00 0.00 81 1015.5
20260505021505 51 323 0.0 0.0 0.00 0.00 0.00 81 1015.6
20260505020004 51 324 0.0 0.0 0.00 0.00 0.00 82 1015.5
20260505014503 50 324 0.0 0.0 0.00 0.00 0.00 82 1015.7
20260505013002 49 324 0.0 0.0 0.00 0.00 0.00 81 1015.8
20260505011601 50 324 0.0 0.0 0.00 0.00 0.00 81 1015.7
20260505010103 50 324 0.0 0.0 0.00 0.00 0.00 81 1015.8
20260505004556 50 324 0.0 0.0 0.00 0.00 0.00 81 1015.9
20260505003101 50 324 0.0 0.0 0.00 0.00 0.00 81 1016.1
20260505001558 50 324 0.0 0.0 0.00 0.00 0.00 81 1016.3
20260505000058 50 351 0.0 0.0 0.00 0.00 0.00 81 1016.4
20260504234551 50 351 0.0 0.0 0.00 0.00 0.00 81 1016.4
20260504233049 51 325 0.0 0.0 0.00 0.00 0.00 80 1016.6